{"data":{"norad_id":58452,"intl_designator":"2023-183R","name":"STARLINK-30928","alt_names":[],"object_type":"PAYLOAD","status":"ACTIVE","operator":null,"country":"US","launch_date":"2023-11-28","launch_site_code":"AFETR","launch_vehicle":null,"mission":null,"orbit_class":"UNKNOWN","rcs_meters":null,"size_class":null,"mass_kg":null,"dimensions":null,"purposes":["comms"],"wikipedia_slug":null,"has_3d_model":false,"image_url":null,"decayed_at":null,"tle_current":{"epoch":"2026-09-19T16:19:39.351648Z","epoch_age_seconds":217802,"freshness":"STALE","line1":"1 58452U 23183R   26262.68031657  .00002160  00000+0  88001-4 0  9994","line2":"2 58452  43.0045  25.9761 0001448 265.1549  94.9138 15.27584612156390","mean_motion":15.27584612,"eccentricity":0.0001448,"inclination_deg":43.0045,"raan_deg":25.9761,"arg_perigee_deg":265.1549,"mean_anomaly_deg":94.9138,"bstar":8.8001e-5,"rev_number":15639,"period_min":94.266464108634,"perigee_km":482.04178834022,"apogee_km":484.02878383426,"semimajor_km":6861.1722860872,"source":"CELESTRAK","updated_at":"2026-09-21T09:00:33.878571Z"}}}